Location: ???
(31.8348°N, 35.1495°E)
Time: 14:14:47
(UTC+00:00)

Daily predictions for brighter satellites

Satellite Brightness Start Highest point End
(mag) Time Altitude Azimuth Time Altitude Azimuth Time Altitude Azimuth
Cosmos 2084 Rocket 3.9 15:19:41 10° NW 15:24:06 71° WSW 15:28:29 10° SSE
Cosmos 1125 Rocket 3.7 15:19:26 10° SSW 15:24:36 76° WNW 15:29:49 10° NNE
Nadezhda 3 Rocket 4.2 15:20:22 10° N 15:26:29 52° E 15:32:37 10° SSE
H-2A R/B 3.5 15:24:30 10° S 15:28:13 58° W 15:32:02 10° NNW
Cosmos 1758 Rocket 4.3 15:24:47 10° SSE 15:28:35 31° E 15:32:25 10° NNE
Cosmos 2227 Rocket 2.8 15:23:34 10° S 15:28:42 37° ESE 15:33:51 10° NE
COSMO-SKYMED 1 2.7 15:24:29 10° NNE 15:28:45 56° E 15:33:00 10° S
Cosmos 2360 Rocket 3.7 15:23:32 10° NW 15:28:47 42° WSW 15:34:01 10° S
Okean-O 2.8 15:25:02 10° SSE 15:29:19 51° ENE 15:33:37 10° N
H-2A ROCKET BODY 2.9 15:16:32 10° W 15:31:34 68° S 15:35:16 10° E
ASTRO E2 3.8 15:29:31 10° W 15:33:17 41° SSW 15:37:01 10° SE
Cosmos 1626 Rocket 4.3 15:30:13 10° SSW 15:34:30 58° W 15:38:46 10° N
NOSS 0 Rocket 4.5 15:29:07 10° N 15:34:45 35° ENE 15:40:19 10° SE
Envisat 3.0 15:31:31 10° SSE 15:36:34 77° ENE 15:41:40 10° N
Cosmos 2219 Rocket 2.2 15:31:00 10° NNW 15:36:39 66° ENE 15:42:14 10° SSE
COSMOS 2428 2.7 15:33:00 10° NNW 15:38:43 67° ENE 15:44:24 10° SSE
Cosmos 2341 Rocket 4.2 15:33:01 10° SSE 15:39:11 55° E 15:45:23 10° NNE
SL-8 Rocket 4.5 15:36:03 10° SSE 15:41:50 40° E 15:47:38 10° NNE
CZ-4 R/B 1.7 15:45:53 10° SE 15:49:37 41° ENE 15:53:27 10° N
ISS -3.8 15:47:47 10° SW 15:51:08 88° SE 15:53:52 15° NE
Atlas Centaur 2 3.2 15:47:23 10° SSW 15:51:37 30° SSE 15:56:09 12° E
Cosmos 1048 Rocket 3.9 15:47:21 10° NNW 15:52:30 90° ESE 15:57:37 10° SSE
Cosmos 1825 Rocket 3.6 15:50:02 10° S 15:54:20 59° E 15:58:36 10° NNE
ADEOS Rocket 4.0 15:48:35 10° NE 15:54:41 34° E 16:01:14 10° SSE
Cosmos 44 3.6 15:51:43 10° S 15:56:13 43° ESE 15:59:45 15° NE
SL-8 R/B 3.8 15:52:03 10° SW 15:56:52 76° NW 16:00:54 15° NE
Centaur AC-116 4.1 15:56:18 10° WSW 15:58:18 24° S 16:02:00 10° ESE
Iridium 96 4.4 16:02:20 29° E 16:02:20 29° E 16:04:21 10° SSE
CSL-04 Debris 4.3 15:59:40 10° SSE 16:04:49 49° ENE 16:10:00 10° N
FALCON 9 R/B 4.0 15:48:26 10° SW 16:11:39 47° SSE 16:16:49 20° E
Cosmos 2218 Rocket 4.0 16:06:23 10° S 16:12:32 61° E 16:18:47 10° NNE
Meteor 2-10 Rocket 4.0 16:08:20 10° N 16:13:09 35° ENE 16:17:48 10° SE
Haruka 2.7 16:16:36 10° WSW 16:19:50 59° SSE 16:21:53 28° E
Ariane Rocket 3.8 16:15:54 10° SE 16:20:07 27° ENE 16:24:21 10° NNE
CZ-2D R/B 3.2 16:16:38 10° SSE 16:20:20 54° ENE 16:24:05 10° N
Cosmos 864 Rocket 4.4 16:15:14 10° S 16:21:17 64° E 16:27:21 10° NNE
IUS-7 SRM-1 4.2 16:15:15 10° W 16:24:07 42° SSW 16:25:54 21° SE
Cosmos 2237 Rocket 2.1 16:21:33 10° NNW 16:27:08 63° ENE 16:32:40 10° SSE
Cosmos 1339 Rocket 4.4 16:21:08 10° N 16:27:08 58° E 16:33:09 10° SSE
Cosmos 1241 Rocket 4.4 16:21:01 10° NNW 16:27:12 66° ENE 16:33:25 10° SE
Cosmos 2333 Rocket 3.7 16:22:07 10° NW 16:27:22 39° WSW 16:32:33 10° S
Cosmos 494 Rocket 4.1 16:23:37 10° NNW 16:28:43 75° WSW 16:33:49 10° S
YAOGAN 1 2.6 16:25:21 10° S 16:29:40 79° W 16:34:00 10° NNW
CSL-04 Rocket 3.7 16:27:55 10° SSE 16:33:21 88° WSW 16:38:54 10° NNW
Shenzhou-11 Module 3.5 16:31:51 10° W 16:33:55 24° NNW 16:33:55 24° NNW
Cosmos 1328 3.9 16:34:18 10° S 16:38:18 77° W 16:41:15 18° N
Cosmos-2242 3.3 16:42:14 10° NNW 16:46:31 65° W 16:50:44 10° S
SL-16 R/B 3.5 16:42:46 10° N 16:45:16 23° NNE 16:45:16 23° NNE
Cosmos 2082 3.9 16:43:05 10° SSW 16:48:39 69° WNW 16:52:42 19° NNE
Cosmos 2366 rocket 4.2 16:43:30 10° SSW 16:49:37 69° W 16:55:51 10° N
Cosmos 1455 2.2 16:47:31 10° N 16:51:19 74° W 16:55:03 10° S
DELTA 2 R/B (1) 4.3 16:47:53 10° WNW 16:53:05 38° N 16:54:02 35° NNE
Cosmos 1939 Rocket 3.9 16:53:35 10° S 16:57:16 44° W 17:01:01 10° NNW
Cosmos 2297 Rocket 4.0 16:55:50 10° WSW 17:00:35 28° WNW 17:05:24 10° N
CZ-4C R/B 3.6 16:53:10 10° NW 17:00:47 61° WSW 17:09:04 10° SSE
Cosmos 2227 Rocket 4.2 17:08:16 10° WSW 17:12:46 24° WNW 17:17:18 10° N
Cosmos 2263 Rocket 4.5 17:13:26 10° SSE 17:13:32 10° SSE 17:13:32 10° SSE
Cosmos 1727 Rocket 4.0 17:16:25 10° N 17:22:34 74° W 17:28:41 10° S
CZ-3C R/B 3.7 17:20:43 10° W 17:39:19 28° SW 17:41:59 22° S
Atlas Centaur 2 2.9 17:34:43 10° WSW 17:38:45 50° SW 17:38:45 50° SW
